ECMWFFLT2_925_thetae_162.txt.gz
Theta_e
341 340 340 339 338 338 339 339 340 340 339 339 338 338 337 338 339 339 340 340 338 338 335 333 334 332 328 327 330 333 333 330 325 327 330 329 328 327 324 322 323 328 330 330 331 332 334 336 336 337 337 337 337 337 336 335 335 335 335 335 334 332
339 339 339 339 338 338 339 340 340 340 340 339 339 338 337 338 339 339 340 340 339 338 336 335 333 332 332 327 326 331 333 331 326 326 330 328 328 327 324 323 322 327 329 330 330 332 334 335 336 337 337 337 337 337 336 335 335 335 334 334 333 331
338 339 338 338 338 338 339 340 340 341 341 339 340 338 335 336 336 337 339 340 338 337 337 336 335 334 334 329 325 326 327 328 324 324 329 328 327 327 325 323 322 325 329 330 330 332 334 335 336 337 337 336 337 337 336 335 335 334 334 333 332 331
338 337 337 338 337 338 339 340 340 340 340 340 340 336 333 335 335 335 338 340 339 337 338 338 337 336 336 332 328 326 324 323 322 324 328 328 327 327 325 324 322 324 327 330 330 331 334 336 337 336 336 336 336 336 335 335 334 334 334 333 332 330
339 337 336 337 337 337 338 339 340 339 339 338 337 333 333 337 337 336 337 340 339 337 337 338 338 338 337 335 333 331 328 323 320 324 328 328 327 326 324 324 323 323 326 329 330 331 334 335 336 337 336 336 336 336 335 334 334 334 334 332 330 329
340 339 337 337 336 335 338 339 338 337 337 336 334 333 333 336 337 338 338 339 339 337 337 338 338 338 338 336 336 335 331 326 319 322 327 327 326 324 322 322 323 324 325 328 330 331 333 334 335 336 337 337 336 335 334 334 334 334 333 331 328 327
341 341 340 338 335 335 337 337 335 336 335 333 334 335 334 334 334 335 337 338 338 336 336 336 336 338 338 337 337 336 334 331 323 319 324 326 324 322 319 319 322 324 324 327 331 332 332 333 335 336 337 337 336 335 334 334 333 333 332 329 326 322
342 342 340 339 337 335 337 336 334 335 334 330 333 337 336 335 333 332 333 334 334 334 335 335 334 336 339 338 337 337 335 334 330 322 320 321 321 318 316 317 320 324 324 325 330 333 334 333 334 336 336 336 336 334 334 333 333 332 330 328 323 318
342 342 340 340 338 336 336 336 335 335 332 330 333 337 337 337 335 333 332 332 333 333 333 335 333 334 338 339 337 336 335 333 333 329 323 318 317 316 315 315 319 323 324 324 327 329 332 334 334 335 335 336 335 334 334 333 332 331 329 325 319 318
341 341 341 340 339 337 336 335 334 334 332 329 332 336 337 338 337 336 334 334 335 334 335 336 333 334 338 338 337 336 335 334 333 331 328 319 314 315 314 314 319 321 322 324 326 326 330 334 334 335 335 335 335 334 333 332 331 330 326 321 317 320
342 341 341 340 339 338 337 335 334 333 332 329 330 334 337 338 337 336 335 335 336 336 337 337 334 335 338 336 336 336 334 335 333 332 330 321 314 314 314 314 317 321 323 328 329 326 329 333 334 334 335 334 334 333 332 331 329 327 323 319 319 323
343 341 341 341 340 338 337 335 334 334 333 330 328 332 336 337 336 334 334 334 336 336 337 337 334 334 337 335 334 335 334 334 333 332 330 319 313 314 313 314 318 322 327 329 330 328 329 333 334 334 334 333 333 332 331 330 327 324 320 319 320 322
343 342 341 342 341 339 338 337 336 335 334 332 327 328 333 335 335 333 332 334 335 337 338 338 336 334 336 335 333 335 335 334 333 332 328 317 313 315 314 318 323 326 328 328 329 330 331 333 333 334 333 332 332 331 330 329 327 324 320 318 318 318
343 343 342 342 341 339 338 338 337 336 335 333 328 326 329 330 333 333 331 332 334 336 338 338 337 335 335 333 333 335 335 335 333 332 328 319 319 322 320 323 328 330 330 328 329 331 333 334 333 333 333 332 332 331 331 330 328 325 322 318 316 316
344 344 343 342 342 340 339 339 338 337 336 335 330 329 331 329 333 336 332 332 334 336 337 337 337 335 333 333 334 335 335 335 333 333 331 325 326 331 329 328 331 332 332 330 331 332 333 333 333 333 333 332 332 331 331 330 328 326 322 319 317 314
344 344 343 342 342 341 339 339 338 338 337 336 333 333 336 334 335 339 337 335 335 337 337 336 337 335 332 332 334 334 335 335 334 333 333 331 331 333 333 332 333 333 332 332 332 333 334 333 333 332 333 333 332 331 331 330 328 326 323 320 318 315
344 345 344 343 343 341 340 340 339 338 338 338 337 336 338 339 339 340 340 338 338 338 337 335 336 335 331 332 334 334 335 335 334 334 334 334 334 333 333 333 333 332 332 333 334 334 333 333 333 332 333 333 333 332 331 330 329 327 324 321 320 318
344 344 345 344 343 342 341 340 340 339 339 339 339 337 338 340 341 341 342 341 340 340 337 333 334 335 332 331 335 335 336 336 335 335 335 335 335 333 332 332 333 333 333 334 334 334 333 333 332 332 331 331 331 330 330 330 329 327 325 323 321 321
344 344 345 345 343 343 341 341 340 340 340 341 341 340 339 341 342 342 343 341 341 341 338 334 334 336 333 332 335 336 336 336 335 336 335 334 334 333 332 332 334 334 334 334 334 334 334 332 330 329 328 326 325 326 327 328 328 326 325 323 323 322
344 344 345 345 344 343 341 341 342 341 342 342 342 342 341 343 344 343 344 342 342 341 338 334 335 337 334 332 335 335 335 335 335 335 334 333 333 333 333 334 334 334 334 334 334 334 334 332 328 326 325 323 322 323 325 326 324 324 324 323 323 323
344 344 345 346 345 344 342 342 343 342 342 342 343 343 342 344 344 345 344 343 342 340 337 335 336 337 335 334 334 334 335 335 334 335 334 333 334 334 334 335 335 334 334 333 332 332 333 331 328 324 323 321 321 320 322 323 321 321 323 323 323 323
344 344 345 346 346 345 343 343 343 343 343 342 343 343 343 344 345 345 344 343 342 341 337 336 336 336 336 335 334 334 335 334 334 335 334 334 334 334 335 335 335 335 334 333 331 330 331 331 328 324 322 321 319 318 318 319 319 320 322 323 323 322
344 344 344 345 346 345 345 344 344 344 344 343 343 343 344 344 344 344 344 343 343 341 339 337 335 335 335 335 335 335 335 333 333 335 334 334 334 334 335 335 335 334 333 332 331 330 330 331 328 324 323 324 323 320 319 317 316 318 319 320 320 320
344 344 344 345 346 345 345 345 344 345 344 344 344 344 344 344 344 344 343 343 343 342 341 339 336 335 335 335 335 336 335 333 333 335 335 333 333 334 336 335 335 335 334 331 329 328 330 331 330 327 325 326 323 323 325 320 315 315 315 316 316 316
345 345 344 344 345 345 345 345 345 345 344 344 344 344 343 343 344 344 343 343 343 342 341 340 337 335 335 335 334 335 335 333 333 335 335 333 332 333 335 336 335 335 334 333 330 328 329 329 331 331 329 327 325 327 330 323 317 315 313 314 315 314
345 345 344 344 344 345 345 345 345 344 344 344 343 343 343 343 343 343 343 343 342 342 341 340 337 335 335 335 334 335 335 333 332 334 334 333 332 332 335 336 335 335 335 334 333 329 329 329 330 330 330 330 328 329 330 322 319 319 315 314 314 314
345 343 341 344 344 344 344 344 344 344 344 343 343 343 343 343 343 343 343 343 343 343 342 340 338 336 335 334 333 335 336 333 331 333 333 332 332 332 335 336 335 335 335 335 334 331 329 329 328 328 329 329 328 328 328 323 320 321 318 316 316 313
346 343 341 344 344 343 343 344 344 344 343 343 343 343 343 342 343 343 343 343 343 342 342 341 338 335 335 333 331 334 336 334 331 333 334 333 333 333 334 336 336 336 335 335 335 333 331 329 328 328 328 328 330 331 329 325 323 321 319 319 318 315
345 344 344 344 344 344 343 343 343 343 343 343 343 342 342 342 342 342 342 342 343 342 341 340 336 333 334 333 330 332 336 335 333 334 335 334 334 334 335 336 336 336 336 335 335 334 332 331 330 329 328 328 331 332 328 326 324 321 319 321 322 318
346 345 345 344 344 344 343 343 343 343 342 342 342 342 342 342 342 342 342 342 342 342 341 340 336 333 335 335 330 331 336 337 335 335 335 335 336 335 335 336 336 336 336 336 335 334 333 332 331 330 330 329 331 331 327 324 322 321 319 320 321 319
346 345 345 345 344 344 343 343 342 342 342 342 342 341 341 342 341 341 341 341 342 341 340 338 336 334 336 336 330 330 337 338 336 335 335 335 336 336 336 337 337 336 337 337 336 335 333 332 331 331 330 329 330 330 329 326 323 322 320 318 321 320
346 345 345 345 344 344 343 343 343 342 342 342 341 341 341 341 341 341 341 340 340 340 339 338 336 336 336 336 332 331 337 339 337 336 335 334 335 336 336 336 337 337 337 337 337 336 334 333 332 331 330 330 330 330 330 330 328 326 323 320 322 320
346 346 345 345 344 344 343 342 342 342 342 341 341 341 341 341 341 341 341 340 340 339 338 337 336 337 337 337 334 333 336 339 338 337 336 335 335 336 336 336 336 337 337 337 337 336 335 334 333 332 331 331 331 330 330 331 331 330 326 323 322 319
346 346 345 345 344 343 343 343 342 342 342 342 341 341 340 340 340 341 341 340 340 339 338 337 336 336 337 337 337 335 336 339 339 339 337 336 336 337 337 338 337 337 337 337 337 336 336 335 334 333 333 332 331 331 330 330 331 331 328 325 323 322
346 346 345 344 344 344 343 343 342 342 342 341 341 341 340 340 340 340 341 341 340 339 339 338 337 336 337 337 338 337 337 339 339 339 339 338 338 338 338 338 338 338 337 337 337 337 336 335 335 334 333 333 332 331 331 330 330 331 330 328 326 326
345 345 345 344 344 344 343 343 342 342 342 341 341 341 340 340 340 340 341 341 340 340 339 339 338 337 337 338 338 339 339 340 340 339 340 340 340 339 339 339 339 338 338 337 336 337 336 336 335 334 334 333 333 332 331 331 331 331 331 330 329 329
346 345 345 345 344 344 343 343 342 342 342 341 341 341 340 340 340 339 340 341 341 340 339 339 338 338 338 338 339 339 340 340 340 340 340 341 341 340 340 340 339 338 338 337 337 336 336 336 335 335 334 334 333 332 331 331 332 331 331 332 331 331

ECMWFFLT2_925_thetae_168.txt.gz
Theta_e
345 344 344 343 342 342 342 342 341 341 340 340 339 338 338 337 338 338 338 338 338 338 335 331 327 323 326 324 321 326 329 330 329 328 327 324 321 322 327 329 330 331 332 333 334 335 336 336 336 337 337 337 336 334 334 334 333 333 331 330 329 329
345 344 344 343 342 342 342 342 341 341 341 341 339 338 338 337 338 337 337 338 336 337 335 333 332 329 329 326 322 324 329 330 329 328 327 323 321 322 327 329 330 332 333 333 334 335 336 337 337 337 337 336 336 335 334 334 333 332 331 330 329 328
344 344 344 343 342 343 342 342 342 341 341 342 340 338 339 338 337 337 336 337 335 335 334 333 333 332 330 327 326 324 327 330 330 329 327 324 321 323 327 329 331 332 333 333 334 335 336 336 337 337 336 336 335 335 334 334 333 332 331 329 329 328
344 344 344 342 342 342 343 342 342 342 341 341 341 338 339 339 337 336 336 336 335 334 335 334 334 335 333 331 330 326 325 329 330 329 327 325 322 323 327 329 330 331 332 333 333 334 335 335 336 336 336 336 334 334 334 333 333 331 330 329 329 327
343 343 342 342 342 342 343 342 342 341 341 341 341 339 338 338 338 337 336 336 335 334 334 335 335 336 334 331 332 330 325 327 329 329 328 325 323 322 325 328 329 330 331 332 333 334 335 335 336 336 336 335 334 334 334 333 332 331 329 329 329 327
342 342 342 343 342 342 342 342 342 340 339 340 340 339 338 338 338 337 338 337 336 335 334 335 336 336 332 329 332 333 327 326 328 329 328 326 324 323 324 327 328 329 330 332 333 334 335 335 335 335 335 335 334 334 333 332 331 330 329 329 328 326
342 343 342 343 342 342 342 341 340 338 338 340 340 340 339 338 337 338 339 338 337 335 334 335 336 335 332 328 331 333 330 327 327 327 329 327 324 323 324 326 328 328 330 332 333 334 335 335 335 335 335 335 334 334 333 332 330 330 328 327 325 322
342 342 342 341 341 340 339 340 339 338 339 340 339 340 340 338 337 338 339 338 338 337 335 335 335 333 332 330 328 330 329 327 327 327 328 327 325 324 324 326 328 328 329 332 333 334 335 335 335 335 335 335 334 334 333 331 330 329 327 324 320 318
341 341 341 340 340 340 337 338 338 338 339 339 339 339 340 339 338 339 339 338 338 338 335 334 334 333 333 332 327 326 325 324 324 324 327 328 326 324 324 325 327 327 329 331 333 334 335 335 335 335 335 334 334 333 332 332 330 329 326 321 318 321
339 339 340 339 340 340 337 336 337 337 339 339 339 339 339 339 338 339 339 338 339 338 336 335 335 334 334 333 329 326 325 322 320 319 324 327 327 325 325 325 325 327 328 331 332 334 335 335 335 335 335 334 334 333 333 332 331 328 323 318 318 322
339 339 338 339 339 339 338 337 337 338 338 339 339 339 339 338 337 338 338 339 339 338 337 336 335 335 335 335 333 331 329 326 322 318 320 325 328 326 325 325 325 326 327 330 332 333 334 335 335 335 335 334 334 333 333 332 330 326 321 318 319 321
339 339 338 339 338 338 338 338 339 338 339 338 338 338 338 338 337 336 337 338 339 339 338 336 335 335 335 335 335 334 333 330 327 322 319 323 328 327 325 325 325 326 326 327 329 332 334 335 335 335 335 334 334 333 333 331 329 324 319 319 320 322
339 339 339 339 339 338 338 338 339 338 339 338 338 338 338 338 337 335 336 336 337 338 338 337 335 335 334 334 335 335 334 333 331 328 324 323 326 327 327 326 326 326 326 327 327 328 332 334 335 335 335 334 334 333 332 331 327 321 318 319 321 322
340 339 339 339 339 338 338 338 338 338 338 338 338 338 337 338 337 335 335 335 335 337 338 337 335 334 333 333 335 335 335 334 333 333 330 327 325 326 326 325 325 325 326 327 326 327 330 332 334 334 335 334 334 333 332 330 325 320 318 319 320 321
340 339 339 339 338 338 338 338 338 338 338 338 338 337 337 337 336 334 335 335 334 335 338 337 336 335 334 333 334 335 335 334 333 333 333 332 329 327 326 324 323 324 325 326 326 327 329 331 332 334 335 334 333 333 331 329 324 319 319 318 318 319
340 340 339 339 338 338 338 338 338 338 338 338 338 338 337 336 334 332 333 335 335 335 338 337 336 336 334 333 332 334 335 333 332 333 333 333 332 331 330 326 322 322 323 325 327 328 330 331 332 333 334 334 334 333 331 328 323 320 319 318 316 317
340 340 340 339 338 338 338 338 338 337 338 338 338 338 336 335 331 329 331 333 333 335 337 337 336 336 334 332 331 331 332 332 332 334 334 334 333 332 331 328 323 322 323 325 327 328 330 331 331 332 334 334 333 332 331 328 323 320 320 318 316 317
340 340 340 339 339 339 338 338 338 337 337 337 337 337 335 334 330 328 331 331 330 332 334 334 334 334 333 332 330 329 331 332 332 334 334 334 333 332 332 329 325 323 325 327 329 329 329 330 331 332 333 334 333 332 330 327 324 322 321 319 317 316
340 340 340 340 339 339 339 338 338 337 337 337 336 336 335 334 332 330 332 332 330 330 331 331 332 333 333 333 331 330 331 332 333 334 334 335 334 332 331 330 328 327 328 331 331 330 329 330 330 331 331 332 332 331 330 328 325 323 322 321 319 317
341 341 340 340 340 339 339 338 338 337 337 337 336 335 334 334 333 331 332 334 334 333 332 332 333 334 334 335 333 332 332 333 333 334 334 335 334 333 331 331 331 329 330 331 331 331 330 330 330 330 330 330 331 330 329 328 326 325 324 322 320 318
341 342 341 341 340 339 339 338 338 337 337 336 336 336 335 334 333 331 331 334 335 334 334 334 334 335 335 336 335 335 334 334 333 333 334 334 334 334 332 331 332 331 330 331 330 330 330 331 330 329 328 328 329 330 329 328 327 326 325 323 321 320
341 341 341 341 340 340 339 339 338 338 337 337 336 336 335 334 333 332 331 334 335 333 333 334 334 334 335 335 336 336 336 335 334 332 332 334 334 334 333 332 332 331 330 331 331 330 330 331 328 326 327 326 325 327 327 327 328 327 326 325 323 321
339 340 341 341 340 340 339 339 338 338 338 337 337 336 335 334 333 332 331 332 334 332 331 332 333 333 334 334 335 335 336 336 334 332 332 333 334 334 334 333 332 332 331 331 330 330 331 331 328 325 326 324 321 322 324 324 325 327 327 326 325 323
338 339 342 342 341 340 340 340 339 339 339 338 337 337 336 335 334 334 332 331 332 330 328 329 330 331 332 334 335 335 335 335 334 332 332 334 334 334 334 333 332 332 332 330 329 329 330 329 328 326 325 323 319 321 325 322 319 323 326 326 325 324
338 339 340 340 340 340 340 339 339 339 338 339 338 337 337 337 336 335 334 332 328 326 328 329 330 331 332 334 335 335 335 335 334 332 332 334 335 334 334 333 333 332 332 331 329 329 328 326 328 328 325 324 322 324 329 322 316 319 320 322 324 322
337 335 334 335 337 339 340 338 339 338 336 337 339 339 338 338 337 336 335 333 327 325 329 332 333 333 334 335 336 337 336 335 334 333 332 334 334 334 334 334 333 333 332 331 331 329 327 326 326 327 326 326 325 328 328 320 318 320 318 317 319 320
336 331 329 332 334 337 339 338 339 338 336 337 339 339 339 338 338 337 336 334 331 330 333 335 336 336 337 337 337 338 337 335 334 333 333 334 335 334 334 334 333 333 332 331 331 330 328 327 325 325 325 326 325 327 327 323 321 323 323 320 317 318
336 331 328 333 335 335 338 338 338 338 337 339 340 339 339 338 338 338 337 336 335 335 336 337 339 339 340 340 339 339 338 335 334 334 334 334 335 334 334 334 333 333 332 332 332 331 330 329 327 326 326 326 326 327 327 326 325 324 326 326 320 317
336 334 330 332 335 334 337 338 338 338 337 339 340 340 340 339 339 339 338 338 338 337 338 339 340 340 341 341 340 339 338 336 334 335 335 334 335 334 334 334 333 332 332 332 332 332 332 331 330 329 328 326 327 327 325 326 325 323 323 326 325 319
333 334 331 329 331 334 337 338 338 338 338 339 340 340 340 340 339 339 339 339 339 339 339 339 340 340 341 341 341 340 338 337 335 335 335 335 334 334 334 334 333 333 333 332 332 332 332 332 332 331 330 328 327 327 326 325 325 323 321 322 324 320
332 332 332 330 326 330 336 339 339 338 339 340 341 340 340 340 340 340 340 340 340 340 340 340 341 341 340 340 340 340 339 337 335 335 335 334 334 334 333 334 334 334 333 333 333 332 332 332 332 331 330 330 329 328 328 327 327 326 323 321 322 322
334 334 335 333 326 327 335 339 340 340 340 341 341 341 340 340 340 340 340 340 340 340 340 340 341 341 340 340 340 339 338 337 335 335 335 335 334 334 333 333 334 334 334 334 333 333 332 331 331 331 330 330 330 330 330 330 329 329 327 325 324 323
338 338 337 336 332 331 336 339 341 341 342 342 341 341 341 340 340 340 341 340 340 340 341 340 341 341 341 340 339 338 337 336 336 335 335 335 335 334 334 333 334 334 334 333 333 333 333 332 331 331 331 331 330 330 330 330 330 329 329 327 324 322
339 339 339 339 336 335 337 338 340 341 342 342 342 341 341 341 341 341 341 341 340 340 340 340 340 341 341 340 339 338 337 337 336 335 335 334 334 334 334 333 333 333 333 333 333 333 333 333 332 332 332 332 331 331 331 330 330 329 329 328 325 323
339 339 339 340 339 338 338 338 339 340 341 342 342 342 341 341 341 341 341 341 341 341 340 341 341 341 341 340 338 338 338 337 337 336 335 334 334 334 334 333 333 333 333 333 333 333 333 333 333 333 332 332 331 331 332 331 330 330 330 329 328 326
340 340 340 340 341 341 340 340 340 341 342 342 342 342 342 342 341 341 341 341 341 341 341 341 340 340 340 340 339 338 338 338 337 337 336 335 334 334 334 334 333 333 333 333 333 333 333 333 333 333 333 333 332 332 332 332 331 330 330 330 329 329
340 341 341 341 341 341 341 342 341 342 342 342 343 342 342 342 341 341 341 341 341 341 341 341 340 340 340 340 339 339 339 338 338 337 336 335 334 333 334 334 334 334 333 333 333 333 333 333 334 334 333 333 333 333 333 332 331 331 330 330 329 329

ECMWFFLT2_925_thetae_174.txt.gz
Theta_e
345 345 344 343 342 341 338 338 338 335 336 338 336 336 334 331 333 335 336 338 338 338 339 335 333 334 331 329 330 329 330 329 328 324 321 323 325 328 329 331 333 334 335 335 336 336 336 336 336 336 334 334 334 336 336 335 335 334 332 330 328 325
346 345 345 344 343 343 339 338 340 339 338 339 338 338 338 336 336 336 337 338 339 340 340 338 338 338 335 333 331 329 330 329 327 324 322 324 327 329 330 331 333 334 335 336 337 337 338 337 336 335 335 335 336 337 336 335 334 333 332 330 327 325
346 346 345 345 344 343 342 340 341 341 340 340 339 339 339 339 339 339 338 338 340 340 340 339 339 339 338 338 333 329 330 329 326 323 323 326 328 330 331 331 333 335 337 338 339 340 340 339 337 336 336 337 338 337 336 335 334 332 331 329 327 325
346 345 345 345 345 344 343 341 341 341 341 341 340 340 340 340 339 340 339 338 340 340 339 339 339 339 339 339 335 330 329 328 327 323 324 329 331 332 333 333 333 335 338 338 338 340 341 340 339 338 338 338 338 337 336 335 333 331 330 328 327 325
345 345 345 345 345 344 343 342 342 342 342 341 340 341 340 340 340 339 340 339 339 340 340 339 339 338 338 338 337 334 332 332 332 329 328 334 336 335 335 336 335 335 337 337 337 338 339 339 339 338 337 337 337 337 336 334 333 331 329 327 326 325
346 346 345 345 345 344 343 343 342 342 342 342 341 341 340 340 340 340 340 339 340 340 340 339 338 338 338 338 338 337 335 335 337 335 334 336 337 337 337 337 336 336 336 336 337 337 337 338 338 338 337 337 336 337 336 334 333 331 329 327 326 325
346 346 345 344 345 344 344 343 343 342 342 342 341 341 341 340 340 341 340 340 340 340 339 338 338 338 338 338 338 337 336 336 337 336 336 336 336 337 336 336 336 336 335 336 337 337 337 337 338 338 337 337 336 336 335 334 333 331 329 327 325 325
346 345 345 345 344 344 344 344 343 343 342 342 342 341 341 341 341 341 341 340 340 340 339 338 339 339 338 337 337 337 336 336 336 336 335 336 336 336 336 336 336 336 335 335 336 337 337 337 337 338 337 337 336 336 335 333 332 330 328 326 325 324
346 345 345 345 344 344 344 344 343 343 342 342 342 341 341 341 341 341 341 340 340 339 338 338 339 339 339 337 337 337 336 335 335 335 336 336 336 336 336 336 335 335 335 335 336 336 337 337 337 337 337 337 336 335 334 332 331 328 327 326 326 324
345 345 345 345 345 344 343 343 343 343 342 342 342 341 341 341 341 341 340 340 340 339 338 337 338 339 339 338 337 337 336 335 335 335 335 336 336 336 336 336 335 335 335 335 336 336 337 337 337 337 337 336 335 334 333 332 330 328 327 327 326 324
345 344 345 344 344 343 343 343 343 343 342 342 342 341 341 341 340 340 340 340 339 339 338 337 338 339 339 339 337 337 337 335 335 334 334 335 336 336 336 335 335 335 335 335 335 336 336 336 336 336 336 335 335 334 333 332 329 328 328 327 326 324
345 345 344 344 343 343 343 343 343 342 342 342 342 341 341 340 340 340 340 341 340 339 338 337 338 339 339 339 338 337 337 336 335 334 334 335 336 336 336 335 336 336 335 335 335 336 336 336 336 336 336 335 334 334 333 331 329 328 328 327 326 324
345 345 345 344 343 343 342 342 342 342 341 342 342 341 341 340 340 340 340 341 340 340 339 338 338 339 339 339 338 337 337 335 334 334 333 334 335 336 335 336 337 336 335 335 336 336 336 336 336 335 335 335 334 334 333 331 329 328 327 327 326 326
345 345 344 343 343 342 342 342 342 342 341 341 341 341 340 340 339 339 340 341 340 339 339 338 339 339 338 338 338 338 337 335 333 334 334 333 334 334 335 336 336 335 334 334 335 336 336 336 335 335 335 334 334 334 333 331 330 328 327 327 327 327
345 344 344 343 343 342 342 342 341 341 341 341 341 341 340 340 339 339 339 340 340 339 339 339 339 339 338 338 338 338 337 335 333 333 333 332 333 333 334 335 335 335 334 333 334 335 335 336 335 335 334 334 334 334 333 331 330 329 328 327 327 327
344 344 344 343 342 342 341 341 341 341 340 341 340 340 340 339 339 339 338 339 340 339 339 339 339 339 339 338 338 337 337 337 335 333 332 332 332 333 334 334 334 334 334 333 333 333 334 335 335 334 334 334 334 334 333 332 330 329 328 327 327 327
344 343 343 342 341 341 341 341 341 341 340 341 340 340 340 339 339 339 338 338 339 340 339 339 339 339 339 338 338 338 337 337 336 334 333 332 333 333 334 334 334 334 335 333 332 333 333 333 333 334 334 333 334 334 333 332 330 329 329 328 327 328
343 343 343 342 341 341 341 340 340 340 340 340 340 340 340 339 339 338 338 338 338 339 338 338 338 339 339 339 338 337 337 338 337 336 334 333 333 333 333 334 334 334 335 333 332 333 333 332 332 333 334 334 334 334 333 332 331 329 329 328 328 327
342 342 342 342 341 341 340 340 340 340 340 340 340 339 340 340 339 338 338 338 337 338 338 336 336 337 338 339 338 337 337 338 338 337 336 334 334 334 334 333 333 334 335 334 333 333 334 333 332 333 334 334 334 334 333 332 331 330 329 329 328 327
339 340 340 341 341 340 341 341 340 340 339 339 339 339 339 340 339 338 338 337 337 337 336 335 335 336 337 338 339 337 337 338 338 337 336 336 334 333 334 333 332 333 335 333 333 334 333 333 333 334 333 334 334 333 333 332 331 330 330 329 328 327
336 337 339 340 340 340 340 340 340 340 340 340 340 339 338 339 338 338 337 337 337 337 336 335 335 335 336 337 338 338 337 336 337 337 336 336 335 334 333 333 332 332 333 333 333 334 333 332 333 333 333 333 333 333 333 333 332 331 331 330 329 328
336 336 337 338 340 340 340 340 341 341 341 340 340 339 338 338 338 337 337 337 337 337 336 335 335 335 335 336 337 337 336 335 335 336 336 336 336 335 334 333 332 331 332 333 333 334 332 332 332 333 333 333 333 333 333 332 332 332 331 330 329 329
337 336 336 338 339 340 340 341 341 341 341 340 339 339 338 337 337 337 337 337 337 337 336 335 335 335 335 336 336 336 336 336 335 335 336 336 336 336 335 334 333 332 332 332 333 333 332 332 332 332 333 333 333 333 333 332 332 332 332 331 330 329
339 338 338 339 339 340 340 341 340 341 341 340 339 338 338 338 337 337 337 337 337 337 336 336 335 335 335 335 335 336 336 336 335 335 336 337 336 336 335 334 333 332 331 331 333 332 332 333 333 333 333 333 334 334 333 333 333 332 331 331 330 330
340 340 339 340 340 340 340 340 340 341 341 340 339 338 338 338 338 337 337 337 337 337 337 336 335 335 335 335 336 336 336 336 336 336 336 336 337 337 336 335 334 333 331 331 333 332 332 333 334 333 333 333 333 332 332 333 335 334 332 331 331 330
340 340 340 340 340 340 340 340 340 341 341 340 340 339 339 338 338 337 337 337 337 337 337 336 336 335 335 335 336 336 337 337 336 336 336 336 337 336 336 336 334 333 332 331 332 332 332 333 333 333 333 334 334 333 333 334 334 335 333 332 331 331
339 340 340 340 340 340 340 340 341 341 341 340 340 340 339 339 338 338 337 337 337 337 337 337 337 336 335 335 336 336 337 337 337 337 337 337 336 336 336 335 334 334 333 332 333 332 332 333 333 333 333 335 336 335 334 334 332 333 334 333 332 332
340 340 340 340 340 340 340 340 340 341 341 341 340 340 340 340 339 339 338 338 338 338 337 337 337 336 335 335 336 337 337 337 337 337 337 337 337 336 336 335 334 334 334 334 333 333 334 334 333 333 333 334 336 335 333 333 333 332 334 334 333 332
339 340 341 341 340 340 340 339 340 340 341 341 340 340 340 340 340 340 339 339 339 339 338 337 337 337 336 335 335 337 337 338 337 337 338 338 337 337 336 336 336 335 335 335 335 334 335 335 334 334 335 335 335 334 333 333 333 333 333 333 334 333
339 340 341 340 340 340 339 339 339 340 340 340 340 341 341 341 340 340 340 340 340 339 339 339 338 337 337 335 335 337 338 338 338 337 338 337 337 337 336 336 336 336 336 337 336 336 336 336 335 335 335 336 336 335 334 334 334 334 334 334 335 334
339 339 340 339 339 339 339 338 339 340 339 339 340 340 341 341 341 341 340 340 340 340 340 340 340 339 338 337 336 337 338 338 338 338 338 337 338 338 337 337 337 337 337 337 337 337 337 337 336 335 335 335 335 334 334 334 334 334 334 335 334 335
338 339 339 339 339 338 338 337 337 338 338 337 339 341 341 341 341 341 340 340 341 341 341 341 341 340 339 338 337 338 338 338 338 339 339 338 338 338 338 338 338 338 338 338 338 338 338 337 337 336 336 335 334 334 334 334 335 334 334 335 335 335
336 337 338 339 338 337 336 335 333 336 335 332 335 340 341 341 341 341 341 341 341 341 341 341 341 341 340 339 338 338 338 338 337 339 339 338 338 338 338 338 338 338 338 338 338 338 338 338 337 336 336 336 335 335 335 335 335 335 335 335 335 335
335 336 337 337 338 336 335 334 332 332 330 325 331 338 340 340 341 341 341 341 342 341 342 342 341 341 341 340 339 338 339 338 338 339 340 340 339 339 338 338 338 338 338 338 338 338 338 338 337 336 336 336 336 336 336 336 336 336 336 335 335 336
334 335 336 336 337 337 337 337 336 334 328 326 331 337 340 341 341 342 342 342 342 342 342 342 342 342 341 341 340 339 339 339 339 339 340 340 340 339 339 339 338 338 339 338 338 338 338 337 337 337 336 336 336 336 336 336 336 336 336 336 336 335
332 335 336 336 336 337 337 338 338 338 336 334 334 337 339 340 341 343 342 341 341 341 342 342 342 342 342 342 341 340 340 340 340 340 340 340 341 340 340 340 339 338 339 338 338 338 337 337 338 337 337 336 336 336 336 336 336 336 336 336 336 335
328 332 335 336 336 336 337 338 338 339 339 338 337 337 338 338 339 342 342 340 339 339 341 341 341 342 343 342 342 341 341 340 340 340 340 341 341 341 341 341 340 339 339 339 338 338 338 337 337 337 337 336 336 336 337 337 336 337 337 337 336 336

ECMWFFLT2_925_thetae_180.txt.gz
Theta_e
344 343 343 343 342 343 343 342 342 341 338 335 333 330 328 327 328 333 338 339 338 338 338 338 334 332 330 330 329 329 329 328 327 325 325 326 328 331 333 334 334 334 335 334 334 333 333 332 334 336 337 337 337 336 334 331 329 328 327 325 325 325
344 343 343 343 342 341 341 340 340 338 335 335 335 333 332 333 335 338 339 339 337 337 337 337 335 333 330 330 330 328 329 328 326 324 323 325 328 331 333 334 333 334 334 334 333 332 333 334 336 337 337 337 337 336 334 331 329 327 326 325 325 325
343 343 343 343 342 339 335 335 334 332 333 336 338 337 337 337 337 339 340 339 337 338 338 337 333 333 331 329 330 329 329 328 325 322 322 325 328 331 333 333 333 334 334 336 336 334 333 335 337 337 337 336 336 335 332 331 329 326 325 325 325 325
343 343 344 344 343 340 336 335 333 330 331 336 338 338 339 338 338 339 340 337 339 341 341 340 334 335 336 330 329 330 329 328 326 322 321 324 328 331 333 333 334 334 337 340 340 339 336 336 337 337 337 337 337 334 332 330 328 326 325 325 326 326
343 344 344 344 343 342 341 340 338 334 331 333 336 338 338 339 339 340 340 338 340 342 341 342 337 338 340 333 328 330 329 328 326 323 321 324 328 330 332 332 334 336 339 341 341 340 338 338 338 336 336 337 336 334 332 330 328 326 324 324 326 326
343 344 345 344 343 343 342 342 342 339 336 334 333 336 338 339 339 339 340 338 339 342 340 340 338 338 341 336 330 329 329 328 327 324 321 325 328 328 332 333 335 338 339 340 340 339 337 338 337 337 336 336 336 333 332 330 329 326 322 323 325 325
344 345 345 344 343 343 342 342 342 340 340 339 334 336 339 339 340 339 339 338 338 340 339 338 338 338 341 339 334 331 331 332 331 326 324 331 332 328 334 337 337 338 338 339 340 338 337 337 337 337 337 337 336 335 333 330 329 326 322 322 325 325
345 345 345 344 344 343 342 342 341 341 341 341 338 338 339 338 339 338 338 339 338 338 336 337 338 338 340 339 337 334 333 336 336 331 328 335 336 329 334 339 337 338 338 338 338 337 338 338 337 338 338 338 337 335 333 331 329 327 322 322 325 325
344 345 344 344 344 344 342 341 341 341 341 341 339 340 339 338 339 337 337 338 337 336 334 337 338 338 339 338 338 336 335 336 337 335 330 334 336 331 334 336 334 337 337 336 336 336 338 338 338 339 338 338 337 334 333 331 329 327 325 323 324 325
343 344 344 344 345 344 342 342 342 341 341 340 340 340 339 339 340 338 338 338 337 337 335 337 338 337 338 338 338 337 335 335 335 335 331 332 335 332 333 334 333 334 334 335 335 336 338 338 338 338 338 338 336 334 332 331 329 327 327 324 322 323
341 342 341 343 345 344 342 342 343 341 341 340 340 340 340 339 340 339 338 337 337 337 336 337 338 338 338 337 338 337 335 335 334 335 332 331 335 332 333 335 333 332 332 333 334 335 337 338 338 338 338 338 336 334 332 331 329 328 328 324 320 322
340 340 340 341 343 344 343 342 343 343 341 341 340 340 341 340 340 339 339 338 337 338 337 337 338 338 337 336 338 337 335 335 334 335 334 331 334 334 334 335 334 332 331 333 334 334 336 337 338 338 338 337 335 335 332 330 330 328 327 325 322 322
339 340 339 341 341 342 343 343 343 343 342 342 340 340 341 341 341 341 340 339 339 339 338 338 338 337 337 336 338 338 336 336 335 334 335 334 335 335 335 335 333 332 332 333 333 334 335 336 338 337 337 337 335 334 332 330 330 328 327 326 324 323
339 340 340 341 341 340 341 342 343 342 342 342 342 340 341 341 341 341 340 340 339 340 339 338 338 338 337 337 338 338 337 337 336 335 335 335 335 335 335 335 333 332 332 332 334 334 334 336 337 337 337 337 335 334 332 331 330 329 328 327 325 324
339 340 341 341 341 340 339 340 342 342 342 342 343 342 341 342 341 341 341 341 340 340 339 338 338 338 338 338 338 338 337 336 336 335 335 334 335 336 335 335 333 333 333 332 334 334 334 335 336 336 337 337 336 335 333 331 330 329 328 328 327 326
339 340 341 341 341 340 339 339 339 340 341 343 343 343 342 342 342 341 341 341 341 340 340 339 339 338 338 339 338 338 337 336 336 336 336 335 334 335 335 335 334 334 333 333 334 334 334 335 335 335 336 336 337 335 334 332 330 329 329 328 328 327
339 341 341 341 341 340 339 338 338 338 339 341 343 343 342 342 342 341 341 341 341 341 341 339 339 338 339 340 339 339 338 337 336 335 335 335 334 335 335 335 335 334 333 332 332 333 334 334 335 335 336 336 337 336 334 333 331 330 329 329 329 328
339 341 340 341 341 341 338 336 336 336 337 339 341 343 342 342 342 341 341 342 342 341 340 339 339 339 339 340 340 339 338 338 337 334 335 335 334 334 334 334 335 335 334 333 332 332 334 335 335 335 336 336 336 336 335 333 332 331 330 329 329 328
339 340 340 340 341 341 338 336 336 336 336 337 337 339 341 341 341 341 341 341 342 342 341 340 340 340 339 340 340 339 339 338 337 335 334 335 334 333 334 334 335 335 335 334 332 332 333 335 336 336 336 336 336 336 336 334 333 332 331 330 329 329
338 339 340 340 341 341 339 338 336 335 335 337 336 336 337 339 341 341 341 341 342 342 341 341 340 340 339 339 340 340 339 338 337 337 336 336 334 333 333 334 334 334 335 334 333 332 333 334 336 336 336 336 336 337 336 335 334 333 332 330 330 329
338 339 339 340 341 341 339 338 335 333 334 335 336 336 336 336 337 340 341 341 342 342 342 342 341 341 340 339 339 339 339 338 338 338 337 336 335 333 332 334 335 334 335 335 333 333 333 333 335 335 336 336 337 337 336 335 335 334 333 331 330 329
337 338 339 340 341 340 339 337 334 330 330 333 334 336 336 336 335 337 339 340 342 342 341 341 341 341 340 340 339 340 339 339 339 338 337 337 336 335 333 334 335 334 335 335 334 334 333 333 335 336 337 337 337 337 336 335 335 334 333 332 331 329
337 337 339 340 340 340 339 337 335 330 329 333 335 335 336 336 336 336 337 339 341 342 341 341 341 341 341 340 339 340 340 339 339 339 338 337 336 336 334 334 335 334 335 335 334 334 333 333 335 336 337 338 338 338 337 335 335 334 333 333 332 330
339 338 339 340 340 340 339 338 336 335 334 334 336 336 336 336 335 335 335 337 339 340 341 341 340 341 342 341 340 340 340 340 339 340 339 339 337 336 334 334 335 335 335 335 335 335 334 333 334 335 336 337 338 337 338 337 335 335 334 333 333 332
341 340 341 341 340 341 341 340 338 337 337 336 336 336 336 336 335 335 334 335 336 338 340 341 340 340 341 341 340 339 340 340 340 340 340 340 339 337 335 335 336 335 335 335 335 334 334 334 333 334 335 335 337 338 337 336 336 336 335 334 334 333
342 342 341 341 341 341 341 341 339 338 338 337 336 336 336 335 335 335 334 334 336 336 337 339 340 339 339 340 339 339 340 340 340 340 340 340 340 339 337 336 335 335 334 334 334 333 334 335 333 333 333 332 334 336 336 335 337 338 336 335 334 334
341 342 342 341 341 341 340 340 339 339 338 338 337 336 336 336 335 334 334 335 337 337 337 338 338 338 338 338 339 338 339 340 340 339 340 340 340 340 339 337 335 334 334 333 333 333 334 335 333 333 333 331 331 332 334 336 338 339 338 336 335 334
338 339 341 340 339 340 340 340 339 338 339 339 338 338 337 337 336 335 335 336 337 337 337 337 338 338 337 337 337 337 338 340 340 339 339 339 339 339 339 338 337 335 334 333 333 333 334 335 334 333 333 333 333 333 334 336 337 337 338 337 335 335
336 338 340 339 338 338 339 339 338 337 338 339 338 338 337 337 337 336 336 337 337 337 337 338 338 338 337 336 336 337 337 339 339 339 339 338 338 338 339 339 338 336 335 334 333 333 333 334 334 333 333 333 334 335 334 335 336 335 336 338 338 336
333 337 338 336 335 337 338 337 336 335 335 336 338 338 337 337 337 337 337 337 338 338 338 338 338 338 337 336 337 337 337 338 338 339 338 337 337 338 339 339 338 337 336 335 333 332 333 334 334 332 332 333 334 336 335 335 335 334 335 337 338 338
328 335 336 333 333 334 335 337 336 334 332 333 337 338 337 337 337 337 337 337 337 338 338 337 337 337 338 337 337 337 337 337 337 338 338 338 337 338 339 339 338 338 336 335 335 333 332 333 334 333 332 332 333 335 335 335 335 333 334 336 339 338
324 330 335 335 334 335 334 335 335 334 332 333 336 338 337 337 336 337 337 336 336 337 337 337 336 337 338 338 338 337 337 337 338 338 338 338 337 337 339 339 339 339 338 336 336 335 333 333 334 333 331 331 332 334 334 334 334 332 333 335 337 338
323 327 334 334 335 336 335 334 335 334 333 332 335 337 337 337 336 336 336 335 335 336 336 336 336 337 339 338 338 338 338 337 337 338 338 338 338 338 338 339 339 339 338 337 337 337 335 333 334 334 333 331 331 333 333 333 333 331 332 335 335 337
324 325 330 333 333 334 335 336 335 334 333 332 332 332 333 336 337 336 336 336 336 336 336 337 337 338 339 339 338 338 338 338 337 338 338 338 338 338 339 339 339 339 338 338 337 337 337 335 335 335 334 333 331 332 333 333 332 330 332 336 335 336
324 323 325 330 332 333 335 336 336 334 332 332 333 331 330 334 336 336 337 338 338 338 337 338 339 340 341 340 339 338 339 338 337 338 339 339 339 339 339 339 339 338 338 338 337 337 337 337 336 335 335 336 333 332 333 332 332 332 332 335 335 335
323 323 324 325 328 331 333 335 336 335 333 334 335 333 330 332 335 336 335 336 339 340 339 341 341 341 341 341 340 339 339 339 338 338 339 339 339 338 338 338 338 338 337 338 338 337 337 337 337 335 335 336 336 335 334 333 333 333 333 334 336 335
321 322 323 324 325 327 330 332 335 337 337 337 336 334 334 335 336 337 335 333 337 340 341 342 341 339 339 340 341 340 338 338 338 338 339 339 339 338 338 338 337 338 337 338 338 337 337 337 337 337 336 335 336 336 335 334 334 334 333 335 336 335